Terminal Aerodrome Forecast
Issued by NWS North Platte, NE

Home | Current Version | Previous Version | Graphics & Text | Print | Product List | Glossary On
Versions: 1 2 3 4 5 6 7 8 9 10 11 12 13 14
000
FTUS43 KLBF 220500
TAFVTN
TAF
KVTN 220521Z 2206/2306 VRB03KT P6SM SKC
     FM221500 18014KT P6SM SCT120
     FM222000 17017G25KT P6SM OVC040
     FM230000 16013G22KT 3SM RA BKN025=

USA.gov is the U.S. government's official web portal to all federal, state and local government web resources and services.